Location: Tel Aviv
(32.0670°N, 34.7670°E)
Time: 13:45:09
(UTC+03:00)

Courier 1B Rocket - Visible Passes

Search period start: 22 June 2025 00:00
Search period end: 02 July 2025 00:00
Orbit: 920 x 1201 km, 28.2° (Epoch: 21 June)

Date Brightness Start Highest point End Pass type
(mag) Time Alt. Az. Time Alt. Az. Time Alt. Az.
22 Jun 6.5 03:07:50 19° SSE 03:07:50 19° SSE 03:09:42 10° SE visible
22 Jun 6.6 04:54:24 10° SW 04:56:40 12° SSW 04:58:54 10° S visible
22 Jun 6.2 20:16:35 10° SSW 20:22:59 29° SSE 20:29:06 10° E visible
22 Jun 5.3 22:08:57 10° WSW 22:16:15 54° SSE 22:17:22 50° SE visible
23 Jun 7.1 00:02:33 10° W 00:03:46 16° W 00:03:46 16° W visible
23 Jun 6.6 03:58:13 15° S 03:58:13 15° S 03:59:56 10° SSE visible
23 Jun 5.6 21:07:40 10° SW 21:14:56 46° SSE 21:20:24 16° E visible
23 Jun 5.5 23:01:01 10° WSW 23:06:47 52° SW 23:06:47 52° SW visible
24 Jun 5.9 20:06:34 10° SW 20:13:37 38° SSE 20:20:23 10° E visible
24 Jun 5.2 21:59:32 10° WSW 22:07:02 62° S 22:09:37 40° ESE visible
24 Jun 6.7 23:53:18 10° W 23:55:59 24° W 23:55:59 24° W visible
25 Jun 5.5 20:58:07 10° WSW 21:05:40 56° SSE 21:12:17 12° E visible
25 Jun 5.2 22:51:44 10° W 22:58:39 64° SSW 22:58:39 64° SSW visible
26 Jun 5.3 21:50:12 10° WSW 21:57:50 66° S 22:01:10 34° ESE visible
26 Jun 6.5 23:44:05 10° W 23:47:32 28° WSW 23:47:32 28° WSW visible
27 Jun 5.4 20:48:43 10° WSW 20:56:25 63° S 21:03:37 11° E visible
27 Jun 5.2 22:42:30 10° W 22:49:58 63° S 22:49:58 63° S visible
28 Jun 5.3 21:40:56 10° W 21:48:37 67° S 21:52:20 32° ESE visible
28 Jun 6.5 23:34:56 10° W 23:38:40 29° WSW 23:38:40 29° WSW visible
29 Jun 5.5 20:39:24 10° WSW 20:47:10 67° S 20:54:39 10° E visible
29 Jun 5.3 22:33:17 10° W 22:40:47 56° SSW 22:41:00 56° S visible
30 Jun 5.4 21:31:41 10° W 21:39:23 63° S 21:43:18 30° ESE visible
30 Jun 6.6 23:25:51 10° W 23:29:38 27° WSW 23:29:38 27° WSW visible
01 Jul 5.5 20:30:10 10° W 20:37:56 67° S 20:45:31 10° ESE visible
01 Jul 5.6 22:24:06 10° W 22:31:29 48° SSW 22:31:55 47° S visible
